Weather History for Lancaster, SC

Change the Weather History Date:

Thursday, January 12, 2012

  Actual Average (KUZA) Record (KUZA)
Temperature  
Mean Temperature 50 °F -  
Max Temperature 57 °F 48 °F 73 °F (2013)
Min Temperature 44 °F 29 °F 10 °F (1981)
Degree Days  
Heating Degree Days 14    
Moisture  
Dew Point 46 °F    
Average Humidity 86    
Maximum Humidity 100    
Minimum Humidity 67    
Precipitation  
Precipitation 0.00 in - - ()
Sea Level Pressure  
Sea Level Pressure 29.66 in    
Wind  
Wind Speed 4 mph (SW)    
Max Wind Speed 13 mph    
Max Gust Speed 23 mph    
Visibility 10 miles    
Events      
Averages and records for this station are not official NWS values.
T = Trace of Precipitation, MM = Missing Value Source: NWS Daily Summary

Daily Weather History Graph

Daily Weather History Graph

Search for Another Location

Airport:

Trip Planner

Search our weather history database for the weather conditions in past years. The results will help you decide how hot, cold, wet, or windy it might be!

Date:

Astronomy

Jan. 12, 2012 Rise Set
Actual Time 7:30 AM EST 5:32 PM EST
Civil Twilight 7:03 AM EST 6:00 PM EST
Nautical Twilight 6:32 AM EST 6:31 PM EST
Astronomical Twilight 6:01 AM EST 7:01 PM EST
Moon 9:24 PM EST (1/12) 9:24 AM EST (1/12)
Length of Visible Light 10h 56m
Length of Day
10h 01m
Waning Gibbous, 87% of the Moon is Illuminated
Jan 12
Waning Gibbous
Jan 16
Last Quarter
Jan 23
New
Jan 30
First Quarter
Feb 7
Full

Hourly Weather History & Observations

Time (EST) Temp. Windchill Dew Point Humidity Pressure Visibility Wind Dir Wind Speed Gust Speed Precip Events Conditions
12:15 AM 48.2 °F - 44.6 °F 87% 29.63 in 10.0 mi SSW 4.6 mph - N/A   Overcast
12:35 AM 48.2 °F - 44.6 °F 87% 29.63 in 10.0 mi SW 5.8 mph - N/A   Scattered Clouds
12:55 AM 48.2 °F - 44.6 °F 87% 29.63 in 10.0 mi SW 5.8 mph - N/A   Clear
1:15 AM 46.4 °F 44.3 °F 44.6 °F 93% 29.64 in 10.0 mi SSW 4.6 mph - N/A   Partly Cloudy
1:35 AM 46.4 °F 44.3 °F 44.6 °F 93% 29.65 in 10.0 mi SW 4.6 mph - N/A   Partly Cloudy
1:55 AM 46.4 °F - 44.6 °F 93% 29.65 in 10.0 mi Calm Calm - N/A   Scattered Clouds
2:15 AM 46.4 °F 45.2 °F 44.6 °F 93% 29.65 in 10.0 mi SSW 3.5 mph - N/A   Clear
2:35 AM 46.4 °F - 44.6 °F 93% 29.65 in 10.0 mi Calm Calm - N/A   Clear
2:55 AM 44.6 °F - 44.6 °F 100% 29.65 in 10.0 mi Calm Calm - N/A   Clear
3:15 AM 44.6 °F 43.1 °F 44.6 °F 100% 29.64 in 10.0 mi SSW 3.5 mph - N/A   Clear
3:35 AM 44.6 °F - 44.6 °F 100% 29.65 in 10.0 mi Calm Calm - N/A   Clear
3:55 AM 44.6 °F - 44.6 °F 100% 29.65 in 10.0 mi Calm Calm - N/A   Clear
4:15 AM 44.6 °F 42.2 °F 44.6 °F 100% 29.65 in 10.0 mi SW 4.6 mph - N/A   Clear
4:35 AM 44.6 °F - 44.6 °F 100% 29.65 in 10.0 mi Calm Calm - N/A   Clear
4:55 AM 44.6 °F - 44.6 °F 100% 29.66 in 10.0 mi Calm Calm - N/A   Clear
5:15 AM 44.6 °F - 44.6 °F 100% 29.66 in 10.0 mi Calm Calm - N/A   Clear
5:35 AM 44.6 °F 41.4 °F 44.6 °F 100% 29.66 in 10.0 mi SW 5.8 mph - N/A   Clear
5:55 AM 44.6 °F - 44.6 °F 100% 29.66 in 10.0 mi Calm Calm - N/A   Clear
6:15 AM 44.6 °F 41.4 °F 44.6 °F 100% 29.66 in 10.0 mi SSW 5.8 mph - N/A   Clear
6:35 AM 44.6 °F 43.1 °F 44.6 °F 100% 29.67 in 10.0 mi SSW 3.5 mph - N/A   Clear
6:55 AM 44.6 °F 41.4 °F 44.6 °F 100% 29.67 in 10.0 mi SW 5.8 mph - N/A   Clear
7:15 AM 44.6 °F 43.1 °F 44.6 °F 100% 29.67 in 10.0 mi SSW 3.5 mph - N/A   Clear
7:35 AM 44.6 °F 42.2 °F 44.6 °F 100% 29.67 in 10.0 mi SSW 4.6 mph - N/A   Clear
7:55 AM 44.6 °F 42.2 °F 44.6 °F 100% 29.68 in 10.0 mi SW 4.6 mph - N/A   Clear
8:15 AM 44.6 °F 42.2 °F 44.6 °F 100% 29.69 in 10.0 mi SSW 4.6 mph - N/A   Clear
8:35 AM 44.6 °F 42.2 °F 44.6 °F 100% 29.69 in 10.0 mi SW 4.6 mph - N/A   Clear
8:55 AM 46.4 °F 43.5 °F 46.4 °F 100% 29.70 in 10.0 mi SW 5.8 mph - N/A   Clear
9:15 AM 46.4 °F 43.5 °F 46.4 °F 100% 29.70 in 10.0 mi SW 5.8 mph - N/A   Clear
9:35 AM 48.2 °F - 46.4 °F 93% 29.71 in 10.0 mi SW 5.8 mph - N/A   Clear
9:55 AM 50.0 °F - 46.4 °F 87% 29.72 in 10.0 mi SW 6.9 mph - N/A   Clear
10:15 AM 51.8 °F - 46.4 °F 82% 29.72 in 10.0 mi SW 9.2 mph - N/A   Partly Cloudy
10:35 AM 53.6 °F - 46.4 °F 77% 29.71 in 10.0 mi SW 11.5 mph 17.3 mph N/A   Mostly Cloudy
10:55 AM 53.6 °F - 46.4 °F 77% 29.71 in 10.0 mi SW 12.7 mph 18.4 mph N/A   Overcast
11:15 AM 53.6 °F - 46.4 °F 77% 29.71 in 10.0 mi SSW 10.4 mph 18.4 mph N/A   Overcast
11:35 AM 53.6 °F - 46.4 °F 77% 29.71 in 10.0 mi SSW 9.2 mph 18.4 mph N/A   Overcast
11:55 AM 53.6 °F - 46.4 °F 77% 29.70 in 10.0 mi SW 12.7 mph 23.0 mph N/A   Overcast
12:35 PM 53.6 °F - 46.4 °F 77% 29.68 in 10.0 mi SW 12.7 mph 20.7 mph N/A   Overcast
12:55 PM 53.6 °F - 46.4 °F 77% 29.67 in 10.0 mi SSW 9.2 mph 17.3 mph N/A   Overcast
1:15 PM 53.6 °F - 46.4 °F 77% 29.66 in 10.0 mi SW 10.4 mph 20.7 mph N/A   Overcast
1:35 PM 55.4 °F - 46.4 °F 72% 29.64 in 10.0 mi SSW 9.2 mph 16.1 mph N/A   Mostly Cloudy
1:55 PM 55.4 °F - 46.4 °F 72% 29.65 in 10.0 mi WSW 9.2 mph 16.1 mph N/A   Mostly Cloudy
2:15 PM 55.4 °F - 46.4 °F 72% 29.65 in 10.0 mi SW 8.1 mph - N/A   Mostly Cloudy
2:35 PM 55.4 °F - 46.4 °F 72% 29.64 in 10.0 mi South 4.6 mph - N/A   Mostly Cloudy
2:55 PM 57.2 °F - 46.4 °F 67% 29.65 in 10.0 mi SW 8.1 mph 19.6 mph N/A   Scattered Clouds
3:15 PM 57.2 °F - 46.4 °F 67% 29.64 in 10.0 mi SSW 8.1 mph - N/A   Scattered Clouds
3:35 PM 57.2 °F - 46.4 °F 67% 29.63 in 10.0 mi SW 8.1 mph - N/A   Scattered Clouds
3:55 PM 57.2 °F - 46.4 °F 67% 29.63 in 10.0 mi SSW 5.8 mph - N/A   Partly Cloudy
4:15 PM 57.2 °F - 46.4 °F 67% 29.63 in 10.0 mi South 3.5 mph - N/A   Partly Cloudy
4:35 PM 57.2 °F - 46.4 °F 67% 29.62 in 10.0 mi Calm Calm - N/A   Clear
4:55 PM 57.2 °F - 48.2 °F 72% 29.60 in 10.0 mi Calm Calm - N/A   Clear
5:15 PM 55.4 °F - 48.2 °F 77% 29.61 in 10.0 mi Calm Calm - N/A   Partly Cloudy
5:35 PM 55.4 °F - 48.2 °F 77% 29.60 in 10.0 mi Calm Calm - N/A   Scattered Clouds
5:55 PM 55.4 °F - 48.2 °F 77% 29.61 in 10.0 mi Calm Calm - N/A   Mostly Cloudy
6:15 PM 55.4 °F - 48.2 °F 77% 29.61 in 10.0 mi Calm Calm - N/A   Mostly Cloudy
6:35 PM 53.6 °F - 50.0 °F 88% 29.60 in 10.0 mi Calm Calm - N/A   Mostly Cloudy
6:55 PM 53.6 °F - 48.2 °F 82% 29.59 in 10.0 mi Calm Calm - N/A   Mostly Cloudy
7:15 PM 55.4 °F - 48.2 °F 77% 29.59 in 10.0 mi Calm Calm - N/A   Mostly Cloudy
7:35 PM 55.4 °F - 48.2 °F 77% 29.59 in 10.0 mi South 5.8 mph - N/A   Mostly Cloudy
7:55 PM 55.4 °F - 48.2 °F 77% 29.59 in 10.0 mi South 3.5 mph - N/A   Scattered Clouds
8:15 PM 55.4 °F - 48.2 °F 77% 29.59 in 10.0 mi SW 6.9 mph - N/A   Mostly Cloudy
8:35 PM 55.4 °F - 50.0 °F 82% 29.59 in 10.0 mi SSW 6.9 mph - N/A   Mostly Cloudy
9:15 PM 55.4 °F - 48.2 °F 77% 29.59 in 10.0 mi SW 11.5 mph 21.9 mph N/A   Partly Cloudy
9:35 PM 55.4 °F - 46.4 °F 72% 29.60 in 10.0 mi SW 9.2 mph 18.4 mph N/A   Clear
9:55 PM 55.4 °F - 44.6 °F 67% 29.60 in 10.0 mi SW 13.8 mph 20.7 mph N/A   Partly Cloudy
10:15 PM 55.4 °F - 44.6 °F 67% 29.61 in 10.0 mi WSW 19.6 mph 26.5 mph N/A   Mostly Cloudy
10:35 PM 53.6 °F - 41.0 °F 62% 29.62 in 10.0 mi WSW 18.4 mph 25.3 mph N/A   Scattered Clouds
10:55 PM 50.0 °F - 39.2 °F 66% 29.65 in 10.0 mi WSW 21.9 mph 33.4 mph N/A   Partly Cloudy
11:15 PM 48.2 °F - 37.4 °F 66% 29.69 in 10.0 mi WSW 27.6 mph 34.5 mph N/A   Clear
11:35 PM 42.8 °F 32.9 °F 28.4 °F 57% 29.71 in 10.0 mi WSW 26.5 mph 36.8 mph N/A   Clear
11:55 PM 41.0 °F 31.4 °F 28.4 °F 61% 29.72 in 10.0 mi WSW 21.9 mph 34.5 mph N/A   Clear